Home   Weather   Silsand   Past weeks
Flag for Norway

Past Weather in Silsand, Norway — Yesterday and Last 2 Weeks

Now
16 °F

Cold.


Feels Like: 16 °F
Forecast: 33 / 23 °F
Wind: 2 mph from Northwest

Location: Kongsoya

Current Time: Oct 14, 2019 at 3:36:59 pm

Latest Report: Oct 14, 2019 at 2:00 pm


Visibility: N/A

Pressure: 30.09 "Hg

Humidity: 91%

Dew Point: 14 °F

Location of SilsandLocation

Past Weather in Silsand — Graph

°F

Silsand Temperature Yesterday

Maximum temperature yesterday: 26 °F (at 1:00 pm)
Minimum temperature yesterday: 23 °F (at 11:00 pm)
Average temperature yesterday: 25 °F

High & Low Weather Summary for the Past Weeks

 TemperatureHumidityPressure
High33 °F (Oct 6, 2:00 pm)100% (Sep 29, 4:00 pm)30.33 "Hg (Sep 29, 4:00 pm)
Low16 °F (Oct 14, 2:00 pm)74% (Oct 13, 10:00 am)29.41 "Hg (Oct 12, 12:00 am)
Average28 °F95%29.97 "Hg
* Reported Sep 29 2:00 pm — Oct 14 2:00 pm, Silsand. Weather by CustomWeather, © 2019

Note: Actual official high and low records may vary slightly from our data, if they occured in-between our weather recording intervals... More about our weather records

Advertising

Silsand Weather History for the Previous 24 Hours

Scroll right to see more
 ConditionsComfort  
Time TempWeatherWind HumidityBarometerVisibility
2:00 pm
Mon, Oct 14
16 °FCold.2 mph91%30.09 "HgN/A
1:00 pm18 °FCold.No wind92%30.10 "HgN/A
12:00 pm20 °FCold.No wind89%30.10 "HgN/A
11:00 am19 °FCold.No wind83%30.10 "HgN/A
10:00 am20 °FCold.1 mph88%30.09 "HgN/A
9:00 am20 °FCold.2 mph87%30.09 "HgN/A
8:00 am21 °FCold.3 mph83%30.09 "HgN/A
7:00 am22 °FCold.5 mph84%30.08 "HgN/A
6:00 am22 °FCold.6 mph82%30.07 "HgN/A
5:00 am22 °FCold.6 mph83%30.07 "HgN/A
4:00 am23 °FCold.7 mph84%30.06 "HgN/A
3:00 am23 °FCold.7 mph83%30.06 "HgN/A
2:00 am24 °FCold.8 mph84%30.05 "HgN/A
1:00 am23 °FCold.9 mph82%30.05 "HgN/A
12:00 am24 °FCold.9 mph83%30.04 "HgN/A
11:00 pm
Sun, Oct 13
23 °FCold.9 mph86%30.03 "HgN/A
10:00 pm24 °FCold.10 mph89%30.01 "HgN/A
9:00 pm24 °FCold.12 mph88%29.99 "HgN/A
8:00 pm24 °FCold.12 mph86%29.99 "HgN/A
7:00 pm24 °FCold.14 mph86%29.97 "HgN/A
6:00 pm24 °FCold.13 mph86%29.96 "HgN/A
5:00 pm25 °FCold.12 mph88%29.95 "HgN/A
4:00 pm25 °FChilly.13 mph85%29.94 "HgN/A
Weather by CustomWeather, © 2019

See weather overview